Location: Cisewo
(53.3833°N, 14.9000°E)
Time: 10:59:01
(UTC+00:00)

Cosmos 2151 - Pass Details

Date: 18 April 2021
Orbit: 581 x 600 km, 82.5° (Epoch: 14 May)

Event Time Altitude Azimuth Distance (km) Brightness Sun altitude
Rises 18:58:59 0° 355° (N) 2,865 7.0 -7.8°
Reaches altitude 10° 19:01:27 10° 6° (N) 1,957 6.0 -8.2°
Maximum altitude 19:05:16 30° 68° (ENE) 1,093 4.0 -8.6°
Enters shadow 19:08:42 12° 128° (SE) 1,814 4.8 -9.1°
